COSMOS 2251 DEB, 34327

Orbit data source: Space-Track

COSMOS 2251 DEB, 34327 is space debris in LEO originally from a launch on Wed, 16 Jun 1993 UTC launched from the Plesetsk Missile And Space Complex (PKMTR). The debris from Iridium 33, an American commercial communications satellite, has been tracked extensively since its accidental collision with the defunct Russian satellite Cosmos 2251 in 2009. This event, occurring at high speed in low Earth orbit (LEO), generated thousands of pieces of space debris, significantly increasing the risk of further collisions. The Iridium 33 debris cloud has impacted space traffic management and orbital debris mitigation strategies, making it a subject of ongoing study in space situational awareness.

Loading next visibility...
Identifier
34327, 1993-036NZ
Orbit
LEO
Country
Flag of CISCIS
Related business
Manufacturer
Unknown
Mission
Spacecraft
Bus & Motor
Unknown
Mass
Unknown
Launch date (UTC)
1993-06-16 (33 years ago)
Launch vehicle
Unknown
Launch site
Plesetsk Missile And Space Complex (PKMTR)
Object type
Payload
Rocket body
Debris
Shape & HBR
Unknown shape, 0.1 m
Radar Cross Section
Small (<0.1 m²)

Expand to show TLE details & history
Last TLE update: 7 hours ago

TLE from 7 hours ago
0 COSMOS 2251 DEB
1 34327U 93036NZ  26120.11865236  .00012944  00000-0  12331-2 0  9995
2 34327  73.9924 253.7292 0031331  36.1661 140.0466 14.93048135915700
Epoch: 2026-04-30T02:50Z
TLE epoch observation values (Epoch: 2026-04-30T02:50:51.563Z)
Latitude
3.32683°
Longitude
171.99416°
Altitude
607.507 km
Speed
7.547 km/s
True Right ascension
04h 51m 06s
True Declination
3° 18' 24"
Sunlit
Object was in daylight at epoch
Visualization orbit readout
Latitude
Unknown
Longitude
Unknown
Altitude
Unknown
Speed
Unknown
Apparent Right ascension
Unknown
Apparent Declination
Unknown
Sunlit
N/A
Visualization observer readout
Local Sidereal Time
17:29:24
Azimuth
Unknown
Elevation
Unknown
Doppler factor
Unknown
Orbital elements
Apogee altitude
607.822 km
Perigee altitude
564.183 km
Semi-major axis
6,964.14 km
Eccentricity
0.00313
Inclination
73.9924°
RAAN
253.7292°
Arg. of periapsis
36.1661°
True anomaly
140.27646°
Mean anomaly
140.0466°
Eccentric anomaly
140.1616°
Mean motion
3.73458 °/min
Orbital period
96.4 mins
BSTAR
0.0012331
Loading maneuver chart data...
Computing Atmospheric mass density...

Documentation

Showing up to 5 results
|